Temperature
29 29 30 29 29 29 29 30 30 30 30 29 29 28 26 25 25 24 23 22 21 21 20 20 20 19 19 19 19 19 19 18 18 18 18 18 18 18 17 17 17 17 17 17
28 29 29 29 29 29 29 29 29 29 29 29 28 27 26 25 24 24 23 22 21 20 20 19 19 19 19 19 19 19 18 18 18 18 18 17 17 17 17 17 17 16 16 16
28 28 28 28 29 29 29 29 29 29 29 28 27 26 25 24 23 23 22 21 20 20 19 19 19 19 18 18 18 18 18 18 18 17 17 17 17 17 17 17 16 16 16 16
27 27 26 28 29 28 28 28 28 28 28 27 26 25 24 24 23 22 21 21 20 20 19 19 18 18 18 18 18 18 18 17 17 17 17 17 17 17 16 16 16 16 16 15
27 27 27 27 27 27 27 27 28 27 27 26 25 25 24 23 22 21 21 20 19 19 19 18 18 18 18 18 18 17 17 17 17 17 16 16 16 16 16 16 15 15 15 15
26 25 26 27 27 26 26 26 26 26 25 25 25 26 25 22 21 20 20 19 19 19 18 18 18 17 17 17 17 17 17 16 16 16 16 16 16 16 16 15 15 15 15 15
25 25 26 25 25 25 25 25 24 24 24 24 24 25 23 21 20 20 19 19 18 18 18 17 17 17 17 17 17 16 16 16 16 16 16 16 16 15 15 15 15 15 15 15
24 24 25 24 24 24 23 22 22 23 23 23 22 22 21 20 20 19 19 18 18 17 17 17 17 17 16 16 16 16 16 16 16 16 15 15 15 15 15 15 14 14 14 14
24 24 22 22 22 21 21 21 21 21 21 21 21 21 20 20 19 19 18 18 17 17 17 16 16 16 16 16 16 16 16 16 15 15 15 15 15 15 14 14 14 14 14 14
21 22 21 21 20 20 20 20 20 20 20 20 20 20 20 19 18 18 18 17 17 17 16 16 16 16 16 16 15 15 15 15 15 15 15 14 14 14 14 14 14 14 14 14
21 21 20 20 19 19 19 19 19 19 19 19 19 19 19 18 18 17 17 17 16 16 16 15 15 15 15 15 15 15 15 15 15 14 14 14 14 14 13 13 13 13 13 13
21 20 20 20 19 18 18 18 18 18 18 18 18 18 18 17 17 16 16 16 16 15 15 15 15 15 15 15 15 14 14 14 14 14 14 14 14 13 13 13 13 13 13 12
18 18 18 18 18 18 17 17 17 17 17 17 17 17 17 17 16 16 15 15 15 15 15 15 15 15 14 14 14 14 14 14 14 14 14 13 13 13 13 13 12 12 12 12
16 16 17 17 17 17 17 17 17 17 16 16 16 16 16 16 15 15 15 15 14 14 14 14 14 14 14 14 14 14 13 13 13 13 13 13 13 13 13 13 12 12 12 11
16 16 16 16 16 16 16 16 16 16 16 15 15 15 15 15 15 14 14 14 14 13 13 13 13 13 13 13 13 13 13 13 13 13 13 13 13 12 12 12 12 12 11 11
15 15 16 16 16 16 16 16 16 15 15 15 15 14 14 14 14 14 13 13 13 13 13 13 13 13 13 12 12 12 12 12 12 12 12 12 12 12 12 12 11 11 11 11
15 15 15 15 15 15 15 15 15 15 15 14 14 14 14 13 13 13 13 13 12 12 12 12 12 12 12 12 12 12 12 12 12 12 12 12 12 11 11 11 11 11 11 10
14 14 14 14 14 14 14 14 14 14 14 14 14 13 13 13 13 13 12 12 12 12 12 12 12 11 11 11 11 11 11 11 11 11 11 11 11 11 11 11 11 10 10 10
14 14 14 14 14 14 14 14 14 14 13 13 13 13 13 13 12 12 12 12 12 12 11 11 11 11 11 11 11 11 11 11 11 11 11 11 10 10 10 10 10 10 10 9
13 13 13 13 13 13 13 13 13 13 13 13 13 13 13 12 12 12 12 11 11 11 11 11 11 11 11 11 11 11 11 11 11 10 10 10 10 10 10 10 10 10 9 9
13 13 13 13 12 12 12 12 12 12 12 12 12 12 12 12 11 11 11 11 11 11 11 11 10 10 10 10 10 10 10 10 10 10 10 10 10 10 10 9 9 9 9 8
12 12 12 12 12 12 12 12 12 12 12 12 12 12 11 11 11 11 11 11 11 11 10 10 10 10 10 10 10 10 10 10 10 10 10 10 9 9 9 9 9 9 8 8
12 12 12 12 12 12 12 12 11 11 11 11 11 11 11 11 11 11 11 11 10 10 10 10 10 10 10 10 10 10 10 9 9 9 9 9 9 9 9 8 8 8 8 8
11 11 11 11 11 11 11 11 11 11 11 11 11 11 11 11 11 10 10 10 10 10 10 10 10 10 10 9 9 9 9 9 9 9 9 9 8 8 8 8 8 8 7 7
11 11 11 11 11 11 11 11 11 11 11 11 10 10 10 10 10 10 10 10 10 10 9 9 9 9 9 9 9 9 9 9 9 9 8 8 8 8 8 8 7 7 7 7
11 11 11 11 11 11 11 11 11 11 11 10 10 10 10 10 10 10 10 9 9 9 9 9 9 9 9 9 9 9 9 9 8 8 8 8 8 8 7 7 7 7 7 6
11 11 11 11 11 11 11 11 11 10 10 10 10 10 10 10 10 10 9 9 9 9 9 9 9 8 8 8 8 8 8 8 8 8 8 8 7 7 7 7 7 6 6 6
Wind_Speed
10 8 8 9 10 10 12 12 12 10 9 5 5 4 3 3 3 3 3 3 2 2 2 2 2 2 1 1 2 2 2 3 3 3 3 3 3 3 3 4 4 4 4 5
10 10 10 11 12 12 12 12 12 12 10 4 3 3 4 3 3 3 2 2 2 1 1 1 1 1 1 1 1 2 2 2 2 2 3 3 3 3 3 3 4 4 4 5
11 9 10 14 12 12 12 11 11 11 7 4 4 4 4 3 3 2 1 1 0 1 1 1 1 1 2 1 2 2 2 1 1 2 3 3 3 3 3 3 4 4 5 5
9 8 14 7 4 7 10 9 9 8 5 5 5 4 4 3 3 2 1 1 0 0 1 1 2 2 2 1 2 2 1 1 1 2 2 3 3 3 3 3 4 4 5 5
9 12 12 7 5 6 8 9 6 6 5 4 3 4 5 2 2 2 1 1 0 0 1 1 1 1 1 1 1 1 1 1 2 2 3 3 3 3 3 3 3 4 4 4
9 12 12 4 1 2 6 9 4 5 5 5 5 7 3 3 2 1 1 1 1 1 1 1 1 0 1 1 1 1 1 2 2 2 2 3 3 3 3 3 3 3 3 4
13 13 8 1 0 3 8 2 2 2 4 5 5 3 1 3 2 2 1 1 1 1 1 1 1 0 1 1 1 1 1 1 1 2 2 2 2 2 3 3 3 3 4 4
10 12 7 3 1 3 3 3 1 2 3 3 2 1 1 2 2 2 1 1 0 1 1 2 2 1 1 1 2 1 1 1 1 1 2 1 1 2 2 2 3 3 3 4
5 4 2 2 2 3 3 3 3 3 3 3 3 2 2 2 2 2 2 1 1 1 1 2 2 2 2 2 2 2 1 0 0 1 1 2 2 2 2 3 3 3 3 3
5 4 3 3 2 3 3 4 4 4 5 5 5 4 3 2 2 2 2 2 1 2 2 2 2 2 2 2 2 2 1 1 1 1 1 1 2 2 2 3 3 3 3 4
7 5 4 4 4 5 5 5 5 5 5 5 5 4 4 3 3 2 2 2 2 2 2 2 2 2 2 2 2 2 1 2 2 2 2 2 2 2 3 2 3 4 4 4
6 4 5 5 6 6 6 6 6 6 6 6 6 5 4 4 3 3 3 2 2 3 3 3 2 2 2 2 2 2 2 2 2 2 2 2 2 1 2 1 0 0 2 4
7 7 7 7 7 8 8 8 7 7 7 6 5 5 4 4 3 3 3 3 3 3 3 3 2 2 2 2 2 2 3 3 3 3 2 3 3 3 2 1 3 3 2 1
6 6 6 7 8 7 7 7 6 6 6 5 4 4 3 3 3 3 2 2 2 2 3 3 3 2 2 2 2 3 3 2 3 3 3 3 3 4 4 3 3 2 2 3
6 6 7 7 7 6 5 5 4 4 4 3 3 2 2 2 1 2 2 2 2 2 2 2 2 2 3 3 2 3 3 3 2 2 3 3 3 4 4 4 3 3 3 1
6 6 5 5 6 6 6 5 4 3 3 3 2 2 2 1 1 1 1 1 2 2 2 2 2 2 3 3 3 3 2 2 3 3 3 3 3 3 3 3 3 3 3 4
6 5 5 5 6 6 6 5 4 4 4 3 3 2 2 2 2 1 1 1 1 1 2 2 2 2 2 2 3 3 3 2 3 4 3 3 3 3 3 4 3 3 3 2
5 5 5 6 6 6 6 5 4 4 4 3 3 3 3 3 2 2 2 1 1 2 2 3 2 2 2 2 3 3 3 3 3 3 2 2 2 3 3 3 3 3 3 1
4 4 5 5 5 5 5 5 4 4 3 3 3 3 3 3 2 2 2 2 2 3 3 3 2 3 3 2 3 2 3 3 2 2 2 2 2 3 3 3 3 3 3 2
3 3 4 4 4 4 4 3 3 3 3 3 3 3 2 2 2 2 2 2 2 3 2 2 3 3 2 2 3 2 2 2 2 2 2 2 2 2 3 3 3 2 2 2
3 3 3 3 3 3 3 3 2 3 3 2 3 3 2 2 2 2 2 2 2 2 2 2 2 2 2 1 3 2 1 1 2 2 2 2 2 2 2 2 2 2 2 2
3 3 4 3 3 3 2 2 2 2 2 2 2 2 2 2 2 2 2 2 1 1 2 2 2 2 2 2 1 1 1 1 1 1 1 2 2 2 2 2 2 2 2 3
3 3 4 3 3 3 3 2 1 1 1 1 1 2 2 2 2 2 2 1 1 1 1 1 2 3 2 2 1 1 1 1 1 1 2 2 2 2 2 2 3 3 3 3
3 3 3 3 2 2 2 2 1 1 0 1 1 1 2 2 1 1 1 1 1 0 1 1 1 1 3 1 1 1 1 1 1 1 1 2 2 2 2 2 3 3 3 3
3 3 3 3 3 2 1 1 1 0 0 0 0 0 1 1 0 1 1 1 1 1 1 0 1 2 2 1 1 1 1 1 1 2 2 2 2 2 2 2 2 2 3 3
3 3 3 3 3 2 2 1 1 1 1 0 0 0 0 0 0 0 0 0 0 1 1 1 1 1 1 1 1 1 1 1 1 1 2 2 2 2 3 3 3 3 3 3
3 2 2 2 2 2 2 1 1 1 1 1 1 0 0 0 0 0 0 0 0 1 1 1 1 1 1 1 1 1 1 1 1 2 2 2 2 2 2 3 2 2 2 2
Wind_Direction
260 268 259 250 243 238 246 260 271 277 273 253 234 220 202 185 173 165 157 157 161 170 168 167 169 172 169 173 176 192 206 214 213 212 215 233 243 252 258 258 262 265 267 268
247 249 250 252 251 248 248 255 259 266 269 261 237 208 193 183 178 170 152 160 163 168 181 184 183 176 176 183 179 185 209 219 215 222 224 235 243 250 262 269 269 269 268 268
250 244 250 247 245 246 246 248 256 263 267 244 216 202 201 194 186 178 148 115 144 202 222 250 243 215 207 191 184 191 197 207 212 226 237 244 253 260 265 273 275 269 270 270
255 244 248 253 256 252 252 253 260 267 259 235 226 211 198 189 185 183 148 125 145 217 248 267 267 247 226 201 195 200 203 220 230 235 244 248 252 260 266 266 270 271 272 274
250 249 251 243 235 240 246 248 250 250 237 214 211 215 192 175 173 186 165 123 99 293 297 295 293 261 222 213 199 200 214 235 245 245 247 248 252 261 270 267 264 267 271 272
244 255 256 251 167 240 246 240 229 225 210 205 210 233 201 140 156 160 129 101 60 14 336 355 8 352 225 225 219 226 251 263 263 252 246 244 246 253 261 262 264 270 276 277
245 251 252 6 360 219 234 276 63 208 203 212 225 286 72 146 153 149 134 112 55 14 8 12 356 344 241 239 246 249 253 260 276 284 262 246 245 247 250 253 264 274 281 280
241 246 241 60 185 246 329 3 329 258 221 230 254 291 171 172 183 189 191 193 272 350 2 1 353 329 292 294 299 280 246 256 339 322 307 303 275 261 257 262 255 261 272 281
257 262 20 340 323 339 327 303 291 275 266 256 250 248 241 221 216 217 217 222 248 295 323 331 333 318 295 303 305 286 266 298 314 299 304 292 272 266 259 258 270 278 279 282
260 252 285 284 293 297 304 300 295 282 270 261 257 255 249 243 240 231 220 223 249 282 293 311 321 314 301 296 289 274 283 301 291 278 292 289 284 281 282 288 288 287 288 290
251 262 269 260 275 288 295 295 292 287 279 269 259 251 248 246 243 241 246 251 263 273 284 295 300 292 294 294 287 281 284 281 283 291 298 297 297 318 298 314 312 299 300 303
260 265 276 288 294 294 293 293 291 287 282 275 263 253 248 246 247 251 253 252 255 264 278 286 290 285 284 276 268 266 265 271 277 279 282 277 269 295 31 279 85 107 316 305
276 288 290 292 297 292 287 288 288 284 276 270 268 260 251 252 250 254 253 251 252 259 267 271 273 275 279 275 271 268 268 269 273 272 269 270 268 267 275 247 186 182 184 259
276 282 281 283 291 295 291 288 282 277 272 264 259 254 249 249 253 255 257 261 264 265 267 270 275 285 289 276 264 265 264 253 254 258 264 269 273 274 277 280 280 275 194 173
286 283 279 287 294 297 294 288 280 267 262 259 254 240 228 226 239 260 267 263 260 259 265 270 277 292 293 279 274 277 275 267 265 270 270 274 278 279 282 289 295 296 298 252
291 289 281 284 293 295 291 286 284 277 266 254 244 232 232 214 205 233 250 251 259 280 291 285 281 295 292 288 285 284 285 295 270 266 265 270 277 282 285 284 289 296 299 310
275 274 277 284 291 294 295 293 286 281 272 251 233 227 218 207 211 227 255 287 309 307 299 294 293 288 278 276 281 285 283 263 249 263 270 276 283 281 281 282 281 288 296 326
271 276 282 286 289 291 293 291 282 273 271 257 235 223 220 219 229 245 266 288 288 290 294 291 298 291 279 267 276 283 281 274 267 268 273 276 276 275 275 276 280 287 295 300
288 291 294 298 294 286 289 290 286 283 275 241 223 226 234 240 244 248 254 255 260 274 292 301 299 277 274 276 283 269 277 280 280 277 272 260 262 273 276 277 281 283 294 304
298 304 310 313 311 302 298 300 296 289 277 253 240 244 252 256 255 254 256 264 280 294 296 297 281 276 271 271 277 266 275 283 286 275 261 263 270 275 277 278 285 296 309 311
321 322 327 329 326 314 301 299 295 288 276 255 245 249 251 258 259 261 267 276 291 304 295 282 277 281 277 273 253 269 284 291 296 290 273 270 274 282 289 296 308 316 320 317
321 323 327 331 327 322 319 312 302 291 272 261 257 246 242 246 250 259 272 284 297 329 283 287 299 346 329 287 257 271 276 292 297 296 291 284 285 294 306 313 318 321 317 314
322 328 327 329 327 321 316 312 314 297 281 270 255 242 248 262 262 260 276 298 300 319 303 332 12 21 316 268 264 267 277 288 301 304 301 300 300 302 308 312 319 323 324 321
318 323 328 330 326 318 317 326 334 311 247 234 243 260 263 257 265 296 310 95 91 176 308 30 40 319 276 279 301 299 302 321 336 326 311 305 310 313 316 319 325 329 329 326
313 313 317 316 311 314 326 323 323 28 209 194 199 205 244 250 267 352 10 27 129 197 246 189 210 256 267 312 310 306 311 346 337 325 327 326 322 321 326 328 329 324 324 326
302 301 308 308 311 308 306 315 333 348 344 334 5 89 91 107 122 353 314 47 43 227 270 280 263 240 282 307 305 298 302 320 324 323 339 328 332 334 331 332 330 330 334 336
284 285 281 287 288 286 290 299 313 320 321 310 304 316 294 215 187 338 315 264 248 273 302 301 298 312 336 329 322 324 328 337 337 337 340 339 341 343 349 352 347 342 334 330
Height
1488 1485 1485 1487 1488 1488 1490 1488 1490 1487 1485 1486 1488 1492 1495 1498 1500 1501 1503 1505 1506 1506 1506 1506 1506 1506 1507 1507 1507 1508 1508 1508 1509 1509 1509 1509 1509 1509 1509 1509 1508 1507 1507 1506
1492 1487 1486 1488 1486 1486 1486 1485 1485 1485 1485 1484 1488 1492 1495 1497 1499 1500 1502 1503 1504 1504 1505 1505 1505 1505 1505 1505 1505 1506 1506 1507 1507 1507 1507 1506 1506 1506 1506 1506 1505 1504 1504 1503
1492 1486 1489 1492 1484 1484 1483 1482 1483 1485 1484 1486 1488 1492 1495 1497 1498 1500 1501 1502 1502 1502 1503 1503 1503 1503 1503 1504 1504 1504 1504 1504 1504 1504 1504 1504 1504 1503 1503 1502 1502 1501 1500 1500
1490 1494 1504 1484 1478 1479 1481 1481 1481 1482 1484 1487 1489 1492 1494 1496 1498 1499 1499 1501 1501 1501 1501 1501 1502 1502 1501 1501 1502 1502 1502 1502 1502 1502 1501 1501 1501 1500 1500 1499 1498 1498 1497 1496
1491 1492 1488 1482 1480 1482 1483 1483 1482 1483 1485 1488 1490 1491 1493 1495 1497 1498 1499 1499 1499 1500 1500 1499 1499 1499 1498 1499 1499 1499 1499 1499 1499 1499 1498 1498 1498 1497 1497 1496 1495 1494 1493 1493
1492 1496 1493 1482 1480 1483 1485 1485 1483 1484 1486 1489 1490 1488 1489 1494 1496 1497 1497 1498 1498 1498 1498 1498 1497 1496 1496 1496 1496 1496 1497 1497 1496 1495 1495 1494 1494 1494 1494 1493 1492 1491 1490 1489
1490 1490 1482 1482 1483 1484 1490 1487 1486 1486 1487 1489 1489 1489 1492 1493 1495 1496 1496 1497 1497 1496 1496 1495 1495 1494 1494 1494 1494 1494 1494 1494 1494 1493 1493 1492 1492 1491 1491 1490 1489 1488 1487 1486
1488 1491 1488 1485 1484 1486 1487 1488 1488 1488 1489 1490 1490 1491 1492 1493 1494 1494 1494 1495 1495 1495 1494 1493 1493 1492 1492 1492 1492 1491 1491 1491 1491 1491 1490 1490 1490 1488 1488 1487 1486 1485 1484 1483
1485 1487 1488 1487 1488 1489 1490 1489 1489 1489 1490 1490 1490 1491 1491 1491 1492 1492 1493 1493 1493 1493 1492 1492 1492 1491 1491 1490 1489 1489 1488 1488 1488 1488 1487 1487 1487 1486 1485 1484 1484 1483 1482 1480
1488 1485 1487 1489 1489 1490 1490 1490 1489 1489 1489 1489 1489 1489 1489 1490 1490 1490 1491 1491 1491 1491 1490 1490 1490 1489 1488 1488 1487 1487 1486 1486 1485 1485 1485 1485 1484 1484 1483 1482 1481 1480 1478 1477
1487 1487 1488 1488 1489 1489 1489 1488 1488 1487 1487 1487 1487 1487 1487 1488 1488 1488 1488 1488 1488 1488 1488 1487 1487 1486 1486 1485 1485 1484 1484 1484 1483 1483 1482 1482 1481 1481 1480 1479 1478 1477 1476 1475
1485 1486 1487 1487 1487 1487 1487 1486 1486 1485 1484 1484 1485 1484 1485 1485 1485 1485 1486 1486 1485 1485 1485 1484 1484 1484 1483 1483 1483 1482 1482 1482 1481 1481 1480 1480 1479 1478 1477 1476 1475 1473 1472 1472
1488 1487 1487 1486 1486 1486 1485 1484 1483 1482 1482 1482 1482 1482 1482 1482 1482 1483 1483 1483 1482 1482 1482 1481 1481 1481 1480 1480 1480 1479 1479 1478 1478 1478 1477 1477 1476 1475 1474 1473 1472 1470 1469 1468
1486 1486 1485 1484 1484 1483 1482 1481 1480 1479 1479 1479 1479 1479 1479 1479 1480 1480 1480 1480 1480 1479 1479 1479 1478 1478 1477 1477 1477 1476 1476 1476 1475 1475 1475 1474 1474 1473 1472 1470 1469 1468 1467 1465
1484 1484 1483 1482 1481 1480 1479 1478 1477 1476 1476 1476 1477 1477 1477 1476 1477 1477 1477 1477 1477 1477 1476 1476 1475 1475 1475 1474 1474 1473 1473 1473 1472 1472 1472 1471 1470 1469 1469 1468 1467 1465 1464 1463
1482 1481 1481 1480 1479 1478 1477 1476 1475 1474 1474 1474 1474 1475 1475 1474 1474 1475 1475 1475 1474 1474 1473 1472 1471 1471 1471 1471 1470 1470 1469 1468 1468 1468 1468 1468 1467 1466 1466 1465 1464 1463 1462 1461
1480 1478 1478 1477 1477 1476 1475 1474 1473 1472 1472 1472 1472 1472 1472 1472 1472 1472 1472 1472 1472 1471 1471 1470 1469 1468 1468 1468 1468 1467 1466 1465 1464 1464 1464 1463 1463 1463 1463 1462 1461 1460 1459 1458
1478 1477 1476 1476 1474 1474 1473 1472 1471 1471 1470 1470 1470 1470 1470 1470 1470 1470 1469 1469 1469 1469 1468 1467 1466 1465 1465 1465 1464 1464 1463 1462 1461 1460 1460 1460 1460 1460 1460 1459 1458 1457 1456 1455
1475 1474 1474 1473 1472 1471 1470 1470 1469 1468 1468 1468 1468 1468 1468 1468 1468 1467 1467 1466 1466 1465 1465 1464 1463 1462 1462 1462 1461 1461 1460 1459 1458 1457 1457 1457 1457 1457 1456 1456 1455 1454 1453 1452
1473 1472 1471 1470 1469 1468 1467 1467 1466 1466 1466 1466 1465 1465 1466 1466 1466 1465 1464 1464 1463 1463 1462 1462 1461 1460 1459 1459 1458 1458 1458 1457 1456 1455 1455 1455 1455 1454 1454 1453 1452 1451 1450 1449
1471 1470 1469 1468 1467 1466 1465 1465 1464 1464 1463 1463 1463 1463 1463 1463 1463 1463 1462 1461 1461 1461 1460 1459 1459 1458 1457 1457 1456 1456 1455 1454 1454 1454 1453 1453 1452 1452 1451 1450 1449 1449 1448 1447
1469 1468 1467 1466 1465 1464 1463 1463 1462 1462 1461 1461 1461 1461 1461 1461 1461 1461 1460 1460 1459 1458 1458 1458 1457 1456 1455 1455 1455 1454 1453 1453 1452 1452 1451 1451 1450 1449 1448 1447 1447 1446 1445 1444
1468 1466 1466 1465 1464 1463 1462 1461 1461 1460 1460 1459 1460 1460 1460 1459 1459 1459 1458 1458 1457 1457 1456 1456 1455 1454 1454 1454 1453 1453 1452 1451 1451 1450 1449 1448 1447 1447 1446 1445 1444 1443 1442 1442
1466 1465 1464 1463 1462 1461 1460 1459 1458 1458 1458 1458 1458 1458 1458 1458 1457 1457 1457 1456 1455 1455 1455 1454 1453 1452 1452 1452 1451 1451 1450 1450 1449 1448 1447 1446 1445 1444 1443 1442 1441 1441 1440 1439
1464 1463 1462 1461 1461 1460 1458 1457 1456 1456 1457 1457 1457 1457 1457 1456 1456 1455 1455 1454 1454 1453 1453 1452 1451 1451 1451 1450 1449 1448 1448 1447 1446 1446 1445 1443 1442 1441 1440 1440 1439 1438 1437 1437
1463 1462 1461 1460 1459 1458 1458 1457 1456 1456 1456 1456 1456 1456 1456 1455 1455 1454 1453 1453 1452 1452 1452 1451 1450 1450 1449 1448 1448 1447 1446 1446 1445 1444 1443 1441 1440 1439 1438 1437 1436 1435 1435 1434
1461 1460 1459 1459 1458 1458 1457 1456 1456 1456 1455 1455 1455 1455 1454 1454 1454 1453 1453 1452 1452 1451 1450 1450 1449 1448 1448 1447 1446 1446 1445 1444 1443 1442 1441 1440 1439 1438 1437 1436 1435 1434 1433 1433